Home > Weather > Gävle > Past weeks

Flag for Sweden Past Weather in Gävle, Sweden — Yesterday and Last 2 Weeks

Now
49 °F

Clear.


Feels Like: 49 °F
Forecast: 46 / 61 °F
Wind: 1 mph from Northeast

Location: Films Kyrkby

Current Time: May 29, 2016 at 12:21:21 AM

Latest Report: May 28, 2016 at 11:00 PM


Visibility: 12 mi

Pressure: 30.27 "Hg

Humidity: 93%

Dew Point: 47 °F

Location of GävleLocation

Past Weather in Gävle — Graph

°F

Gävle Temperature Yesterday

Maximum temperature yesterday: 64 °F (at 5:00 PM)
Minimum temperature yesterday: 47 °F (at 12:00 AM)
Average temperature yesterday: 54 °F

High & Low Weather Summary for the Past Weeks

 TemperatureHumidityPressure
High75 °F (May 23, 2:00 PM)100% (May 17, 5:00 AM)30.27 "Hg (May 17, 5:00 AM)
Low39 °F (May 17, 6:00 AM)43% (May 23, 2:00 PM)29.57 "Hg (May 14, 8:00 AM)
Average51 °F81%29.88 "Hg
* Reported May 13 11:00 PM — May 28 11:00 PM, Gävle, Weather by CustomWeather, © 2016

Note: Actual official high and low records may vary slightly from our data, if they occured in-between our weather recording intervals... More about our weather records

Advertising

Gävle Weather History for the Previous 24 Hours

Scroll right to see more
 ConditionsComfort  
Time TempWeatherWind HumidityBarometerVisibility
11:00 PM
Sat, May 28
49 °FClear.1 mph93%30.27 "Hg12 mi
10:00 PM52 °FClear.1 mph88%30.26 "Hg18 mi
9:00 PM55 °FOvercast.1 mph81%30.26 "Hg22 mi
8:00 PM58 °FOvercast.1 mph78%30.25 "Hg19 mi
7:00 PM60 °FOvercast.1 mph75%30.24 "Hg22 mi
6:00 PM60 °FOvercast.3 mph70%30.24 "Hg19 mi
5:00 PM64 °FOvercast.3 mph62%30.24 "Hg14 mi
4:00 PM63 °FLight fog.6 mph60%30.24 "Hg8 mi
3:00 PM62 °FOvercast.3 mph69%30.24 "Hg10 mi
2:00 PM60 °FOvercast.5 mph73%30.25 "Hg11 mi
1:00 PM59 °FOvercast.5 mph77%30.25 "Hg15 mi
12:00 PM55 °FOvercast.2 mph90%30.25 "Hg22 mi
11:00 AM54 °FRain showers. Low clouds.2 mph94%30.24 "Hg17 mi
8:00 AM53 °FLow clouds.2 mph93%30.22 "Hg22 mi
7:00 AM51 °FPartly sunny.2 mph95%30.20 "Hg28 mi
6:00 AM49 °FOvercast.1 mph98%30.20 "Hg17 mi
5:00 AM48 °FFog.No wind100%30.20 "Hg6 mi
4:00 AM48 °FFog.1 mph100%30.20 "Hg6 mi
3:00 AM48 °FRain showers. Low clouds.1 mph100%30.20 "Hg4 mi
2:00 AM48 °FLow clouds.1 mph99%30.21 "Hg6 mi
1:00 AM48 °FRain showers. Low clouds.1 mph99%30.21 "Hg9 mi
12:00 AM47 °FRain showers. Low clouds.1 mph99%30.20 "Hg9 mi
Weather by CustomWeather, © 2016

See weather overviewHow to use our weather pages